Location: Karaa?a�
(36.7158°N, 30.4165°E)
Time: 01:09:33
(UTC+00:00)

OAO 1 - Pass Details

Date: 09 April 2020
Orbit: 773 x 784 km, 35.0° (Epoch: 24 May)

Event Time Altitude Azimuth Distance (km) Brightness Sun altitude
Rises 18:22:44 0° 255° (WSW) 3,257 8.4 -22.4°
Reaches altitude 10° 18:25:13 10° 253° (WSW) 2,330 7.5 -22.8°
Maximum altitude 18:30:42 69° 171° (S) 833 4.4 -23.8°
Enters shadow 18:31:16 64° 132° (SE) 863 4.4 -23.9°
